YO3LAW-13 Weather Reports


time (UTC)temp
C
wind
direction
speed
KPH
gust
KPH
rain 1hr
cm
rain 24hr
cm
rain mn
cm
humidity
%
barometer
mb
20260906052037 21 100 3.2 4.8 0.00 0.00 0.00 56 1009.4
20260906051037 20 71 3.2 6.4 0.00 0.00 0.00 58 1009.0
20260906050037 20 103 3.2 8.0 0.00 0.00 0.00 59 1009.1
20260906045037 20 63 4.8 6.4 0.00 0.00 0.00 59 1009.0
20260906044037 18 102 1.6 6.4 0.00 0.00 0.00 62 1009.0
20260906043037 18 135 3.2 9.7 0.00 0.00 0.00 63 1008.5
20260906042037 18 23 8.0 8.0 0.00 0.00 0.00 64 1008.9
20260906041037 18 49 6.4 11.3 0.00 0.00 0.00 63 1008.4
20260906040037 18 62 6.4 8.0 0.00 0.00 0.00 63 1008.5
20260906035037 18 109 4.8 8.0 0.00 0.00 0.00 62 1008.0
20260906034037 18 72 4.8 6.4 0.00 0.00 0.00 61 1007.9
20260906033037 18 28 8.0 14.5 0.00 0.00 0.00 60 1007.9
20260906032037 18 52 3.2 11.3 0.00 0.00 0.00 60 1008.0
20260906031037 18 81 4.8 8.0 0.00 0.00 0.00 60 1007.7
20260906030037 19 64 6.4 9.7 0.00 0.00 0.00 60 1007.7
20260906025037 19 357 9.7 16.1 0.00 0.00 0.00 61 1007.5
20260906024037 19 50 4.8 14.5 0.00 0.00 0.00 61 1007.1
20260906023037 19 64 8.0 17.7 0.00 0.00 0.00 61 1007.1
20260906022037 20 41 6.4 9.7 0.00 0.00 0.00 60 1006.9
20260906021037 20 333 8.0 14.5 0.00 0.00 0.00 60 1006.7
20260906020037 20 84 8.0 12.9 0.00 0.00 0.00 60 1006.6
20260906015037 20 67 9.7 16.1 0.00 0.00 0.00 61 1006.4
20260906014037 20 55 4.8 9.7 0.00 0.00 0.00 63 1006.1
20260906013037 20 82 4.8 9.7 0.00 0.00 0.00 64 1006.2
20260906012037 20 131 8.0 9.7 0.00 0.00 0.00 64 1006.0
20260906011037 20 34 9.7 16.1 0.00 0.00 0.00 64 1006.1
20260906010037 21 49 11.3 16.1 0.00 0.00 0.00 63 1005.9
20260906005037 21 56 6.4 12.9 0.00 0.00 0.00 62 1005.8
20260906004037 21 61 6.4 9.7 0.00 0.00 0.00 61 1005.4
20260906003037 21 45 12.9 16.1 0.00 0.00 0.00 61 1005.2
20260906002037 21 357 4.8 9.7 0.00 0.00 0.00 61 1005.3
20260906001037 21 57 9.7 12.9 0.00 0.00 0.00 61 1005.2
20260906000037 21 101 6.4 14.5 0.00 0.00 0.00 60 1004.9
20260905235037 21 110 6.4 11.3 0.00 0.00 0.00 60 1005.2
20260905234037 21 52 4.8 12.9 0.00 0.00 0.00 61 1005.2
20260905233037 21 80 4.8 14.5 0.00 0.00 0.00 61 1005.0
20260905232037 21 70 6.4 9.7 0.00 0.00 0.00 61 1005.1
20260905231037 21 108 9.7 9.7 0.00 0.00 0.00 61 1004.9
20260905230037 21 32 8.0 17.7 0.00 0.00 0.00 61 1005.0
20260905225037 22 73 3.2 9.7 0.00 0.00 0.00 61 1005.0
20260905224037 22 37 4.8 9.7 0.00 0.00 0.00 59 1004.6
20260905223037 21 29 6.4 11.3 0.00 0.00 0.00 62 1004.8
20260905222037 21 58 3.2 9.7 0.00 0.00 0.00 64 1004.6
20260905221037 21 113 6.4 9.7 0.00 0.00 0.00 66 1004.5
20260905220037 21 74 1.6 9.7 0.00 0.00 0.00 64 1004.6
20260905215037 21 105 1.6 3.2 0.00 0.00 0.00 66 1004.4
20260905214037 21 134 3.2 4.8 0.00 0.00 0.00 70 1004.2
20260905213037 20 70 1.6 3.2 0.00 0.00 0.00 74 1003.9
20260905212037 20 78 3.2 3.2 0.00 0.00 0.00 75 1003.9
20260905211037 20 72 1.6 3.2 0.00 0.00 0.00 72 1003.9
20260905210037 20 86 1.6 3.2 0.00 0.00 0.00 72 1003.8
20260905205037 21 81 1.6 3.2 0.00 0.00 0.00 72 1003.9
20260905204037 21 73 1.6 3.2 0.00 0.00 0.00 73 1003.9
20260905203037 21 58 1.6 3.2 0.00 0.00 0.00 74 1003.9
20260905202037 21 79 3.2 3.2 0.00 0.00 0.00 71 1004.0
20260905201037 21 79 0.0 1.6 0.00 0.00 0.00 73 1003.9
20260905200037 21 89 0.0 1.6 0.00 0.00 0.00 72 1003.7
20260905195037 21 74 1.6 1.6 0.00 0.00 0.00 73 1003.8
20260905194037 21 72 1.6 3.2 0.00 0.00 0.00 71 1003.7
20260905193037 22 93 0.0 3.2 0.00 0.00 0.00 69 1003.8
20260905192037 22 87 0.0 3.2 0.00 0.00 0.00 66 1003.8
20260905191037 22 67 1.6 3.2 0.00 0.00 0.00 66 1003.7
20260905190037 22 73 1.6 1.6 0.00 0.00 0.00 61 1003.4
20260905185037 23 75 0.0 3.2 0.00 0.00 0.00 60 1003.7
20260905184037 23 74 1.6 1.6 0.00 0.00 0.00 58 1003.8
20260905183037 23 49 0.0 1.6 0.00 0.00 0.00 58 1003.8
20260905182037 24 65 0.0 1.6 0.00 0.00 0.00 56 1003.6
20260905181037 24 75 0.0 0.0 0.00 0.00 0.00 52 1003.6
20260905180037 25 89 0.0 0.0 0.00 0.00 0.00 49 1003.7
20260905175037 25 37 0.0 0.0 0.00 0.00 0.00 48 1003.6
20260905174037 25 37 0.0 1.6 0.00 0.00 0.00 46 1003.7
20260905173037 25 89 0.0 0.0 0.00 0.00 0.00 47 1003.5
20260905172037 26 157 0.0 0.0 0.00 0.00 0.00 46 1003.6
20260905171037 26 44 0.0 0.0 0.00 0.00 0.00 44 1003.4
20260905170037 27 315 0.0 0.0 0.00 0.00 0.00 42 1003.4
20260905165037 27 62 0.0 0.0 0.00 0.00 0.00 40 1003.4
20260905164037 28 147 0.0 0.0 0.00 0.00 0.00 39 1003.4
20260905163037 28 44 0.0 0.0 0.00 0.00 0.00 37 1003.2
20260905162037 29 135 0.0 3.2 0.00 0.00 0.00 35 1003.3
20260905161037 30 257 3.2 6.4 0.00 0.00 0.00 34 1003.3
20260905160037 30 248 3.2 6.4 0.00 0.00 0.00 34 1003.3
20260905155037 30 253 4.8 4.8 0.00 0.00 0.00 33 1003.4
20260905154037 30 253 4.8 8.0 0.00 0.00 0.00 33 1003.2
20260905153037 31 251 3.2 6.4 0.00 0.00 0.00 33 1003.3
20260905152037 31 252 4.8 6.4 0.00 0.00 0.00 33 1003.5
20260905151037 31 258 3.2 6.4 0.00 0.00 0.00 32 1003.6
20260905150037 31 256 3.2 6.4 0.00 0.00 0.00 31 1003.6
20260905145037 32 259 4.8 8.0 0.00 0.00 0.00 32 1003.9
20260905144037 32 240 4.8 8.0 0.00 0.00 0.00 32 1003.7
20260905143037 32 257 4.8 6.4 0.00 0.00 0.00 30 1003.8
20260905142037 33 299 4.8 8.0 0.00 0.00 0.00 30 1003.7
20260905141037 32 259 4.8 8.0 0.00 0.00 0.00 32 1003.9
20260905140037 32 275 3.2 6.4 0.00 0.00 0.00 32 1003.8
20260905135037 32 276 3.2 6.4 0.00 0.00 0.00 31 1004.0
20260905134037 32 269 3.2 9.7 0.00 0.00 0.00 32 1004.0
20260905133037 32 232 3.2 9.7 0.00 0.00 0.00 32 1004.0
20260905132037 33 274 4.8 6.4 0.00 0.00 0.00 33 1003.7
20260905131037 33 236 6.4 11.3 0.00 0.00 0.00 30 1004.3
20260905130037 33 261 6.4 6.4 0.00 0.00 0.00 31 1004.5
20260905125037 33 246 3.2 8.0 0.00 0.00 0.00 30 1004.3
20260905124037 33 266 6.4 9.7 0.00 0.00 0.00 31 1004.4
20260905123037 33 256 6.4 8.0 0.00 0.00 0.00 30 1004.5
20260905122037 33 278 6.4 6.4 0.00 0.00 0.00 32 1004.9
20260905121037 33 242 8.0 9.7 0.00 0.00 0.00 31 1004.9
20260905120037 33 249 6.4 6.4 0.00 0.00 0.00 31 1005.2
20260905115037 33 251 4.8 8.0 0.00 0.00 0.00 31 1005.3
20260905114037 33 243 6.4 8.0 0.00 0.00 0.00 31 1005.3
20260905113037 33 243 4.8 8.0 0.00 0.00 0.00 32 1005.4
20260905112037 33 289 3.2 8.0 0.00 0.00 0.00 32 1005.5
20260905111037 33 281 4.8 11.3 0.00 0.00 0.00 31 1005.5
20260905110037 33 269 4.8 8.0 0.00 0.00 0.00 32 1005.6
20260905105037 33 257 6.4 9.7 0.00 0.00 0.00 32 1005.6
20260905104037 33 264 6.4 11.3 0.00 0.00 0.00 32 1005.5
20260905103037 32 259 4.8 8.0 0.00 0.00 0.00 32 1005.7
20260905102037 32 264 4.8 8.0 0.00 0.00 0.00 33 1005.7
20260905101037 32 233 9.7 14.5 0.00 0.00 0.00 33 1005.9
20260905100037 32 236 9.7 9.7 0.00 0.00 0.00 34 1006.0
20260905095037 32 259 8.0 9.7 0.00 0.00 0.00 33 1006.0
20260905094037 31 231 9.7 9.7 0.00 0.00 0.00 35 1006.0
20260905093037 31 207 1.6 19.3 0.00 0.00 0.00 34 1006.0
20260905092037 31 298 3.2 9.7 0.00 0.00 0.00 35 1006.0
20260905091037 30 287 6.4 6.4 0.00 0.00 0.00 37 1006.0
20260905090037 30 229 8.0 20.9 0.00 0.00 0.00 35 1006.3
20260905085037 30 251 6.4 6.4 0.00 0.00 0.00 40 1006.2
20260905084037 29 242 4.8 9.7 0.00 0.00 0.00 41 1006.3
20260905083037 28 255 4.8 6.4 0.00 0.00 0.00 42 1006.4
20260905082037 27 261 9.7 16.1 0.00 0.00 0.00 45 1006.5
20260905081037 26 312 3.2 6.4 0.00 0.00 0.00 48 1006.7
20260905080037 26 281 1.6 8.0 0.00 0.00 0.00 50 1006.7
20260905075037 25 287 1.6 4.8 0.00 0.00 0.00 51 1006.5
20260905074037 25 307 4.8 8.0 0.00 0.00 0.00 51 1006.7
20260905073037 24 252 4.8 8.0 0.00 0.00 0.00 51 1006.8
20260905072037 23 200 3.2 4.8 0.00 0.00 0.00 55 1006.6
20260905071037 23 302 1.6 4.8 0.00 0.00 0.00 57 1006.5
20260905070037 22 187 4.8 6.4 0.00 0.00 0.00 59 1006.7
20260905065037 22 271 3.2 4.8 0.00 0.00 0.00 61 1006.4
20260905064037 21 217 3.2 6.4 0.00 0.00 0.00 62 1006.7
20260905063037 21 207 3.2 6.4 0.00 0.00 0.00 65 1006.7
20260905062037 21 251 0.0 6.4 0.00 0.00 0.00 66 1006.5
20260905061037 20 114 3.2 8.0 0.00 0.00 0.00 67 1006.6
20260905060037 20 141 3.2 4.8 0.00 0.00 0.00 69 1006.1
20260905055037 20 247 3.2 6.4 0.00 0.00 0.00 71 1006.1
20260905054037 20 211 3.2 6.4 0.00 0.00 0.00 70 1006.2
20260905053037 20 135 1.6 4.8 0.00 0.00 0.00 69 1006.2